| time (UTC) | temp F | wind direction | speed knots | gust knots | rain 1hr in | rain 24hr in | rain mn in | humidity % | barometer mb |
| 20260906173619 | 76 | 94 | 1.7 | 13.9 | 0.00 | 0.00 | 0.00 | 79 | 1016.8 |
| 20260906172618 | 76 | 106 | 0.9 | 5.2 | 0.00 | 0.00 | 0.00 | 80 | 1017.2 |
| 20260906171617 | 76 | 198 | 1.7 | 5.2 | 0.00 | 0.00 | 0.00 | 81 | 1017.2 |
| 20260906170616 | 76 | 147 | 1.7 | 7.8 | 0.00 | 0.00 | 0.00 | 81 | 1017.2 |
| 20260906165513 | 75 | 202 | 3.5 | 7.8 | 0.00 | 0.00 | 0.00 | 81 | 1017.5 |
| 20260906164512 | 75 | 221 | 2.6 | 5.2 | 0.00 | 0.00 | 0.00 | 81 | 1017.5 |
| 20260906163511 | 75 | 187 | 4.3 | 7.8 | 0.00 | 0.00 | 0.00 | 82 | 1017.5 |
| 20260906162439 | 74 | 196 | 3.5 | 9.6 | 0.00 | 0.00 | 0.00 | 82 | 1017.8 |
| 20260906161438 | 74 | 185 | 2.6 | 7.8 | 0.00 | 0.00 | 0.00 | 83 | 1017.8 |
| 20260906160437 | 74 | 158 | 1.7 | 7.0 | 0.00 | 0.00 | 0.00 | 84 | 1017.8 |
| 20260906155436 | 74 | 202 | 1.7 | 4.3 | 0.00 | 0.00 | 0.00 | 83 | 1017.8 |
| 20260906154436 | 73 | 189 | 1.7 | 10.4 | 0.00 | 0.00 | 0.00 | 83 | 1017.8 |
| 20260906153435 | 74 | 188 | 0.9 | 7.0 | 0.00 | 0.00 | 0.00 | 83 | 1017.8 |
| 20260906152434 | 74 | 188 | 1.7 | 7.8 | 0.00 | 0.00 | 0.00 | 84 | 1017.8 |
| 20260906151433 | 74 | 155 | 4.3 | 7.0 | 0.00 | 0.00 | 0.00 | 83 | 1017.8 |
| 20260906150433 | 74 | 178 | 4.3 | 7.0 | 0.00 | 0.00 | 0.00 | 83 | 1017.9 |
| 20260906145431 | 75 | 112 | 1.7 | 12.2 | 0.00 | 0.00 | 0.00 | 83 | 1017.5 |
| 20260906144431 | 75 | 211 | 2.6 | 7.8 | 0.00 | 0.00 | 0.00 | 82 | 1017.6 |
| 20260906143430 | 75 | 206 | 3.5 | 7.0 | 0.00 | 0.00 | 0.00 | 82 | 1017.6 |
| 20260906142429 | 75 | 194 | 3.5 | 9.6 | 0.00 | 0.00 | 0.00 | 82 | 1017.6 |
| 20260906141428 | 75 | 85 | 0.9 | 5.2 | 0.00 | 0.00 | 0.00 | 82 | 1017.6 |
| 20260906140427 | 74 | 227 | 0.9 | 4.3 | 0.00 | 0.00 | 0.00 | 84 | 1017.5 |
| 20260906135426 | 74 | 190 | 1.7 | 5.2 | 0.00 | 0.00 | 0.00 | 85 | 1017.5 |
| 20260906134425 | 73 | 193 | 3.5 | 7.0 | 0.00 | 0.00 | 0.00 | 85 | 1017.5 |
| 20260906133425 | 73 | 171 | 0.0 | 5.2 | 0.00 | 0.00 | 0.00 | 86 | 1017.2 |
| 20260906132424 | 72 | 79 | 0.9 | 2.6 | 0.00 | 0.00 | 0.00 | 87 | 1017.2 |
| 20260906131423 | 72 | 74 | 0.0 | 4.3 | 0.00 | 0.00 | 0.00 | 88 | 1017.2 |
| 20260906130422 | 71 | 101 | 0.0 | 4.3 | 0.00 | 0.00 | 0.00 | 89 | 1017.1 |
| 20260906125350 | 70 | 102 | 0.0 | 2.6 | 0.00 | 0.00 | 0.00 | 91 | 1016.8 |
| 20260906124349 | 69 | 103 | 0.9 | 4.3 | 0.00 | 0.00 | 0.00 | 91 | 1017.1 |
| 20260906123348 | 69 | 105 | 0.0 | 4.3 | 0.00 | 0.00 | 0.00 | 92 | 1017.1 |
| 20260906122316 | 69 | 105 | 0.0 | 1.7 | 0.00 | 0.00 | 0.00 | 93 | 1016.8 |
| 20260906121315 | 69 | 105 | 0.0 | 1.7 | 0.00 | 0.00 | 0.00 | 93 | 1017.2 |
| 20260906120314 | 68 | 105 | 0.0 | 1.7 | 0.00 | 0.00 | 0.00 | 93 | 1017.2 |
| 20260906115314 | 68 | 105 | 0.0 | 1.7 | 0.00 | 0.00 | 0.00 | 93 | 1016.8 |
| 20260906114313 | 68 | 105 | 0.0 | 1.7 | 0.00 | 0.00 | 0.00 | 93 | 1016.9 |
| 20260906113312 | 68 | 103 | 0.0 | 1.7 | 0.00 | 0.00 | 0.00 | 93 | 1016.9 |
| 20260906112311 | 68 | 103 | 0.0 | 1.7 | 0.00 | 0.00 | 0.00 | 92 | 1017.0 |
| 20260906111310 | 68 | 103 | 0.0 | 0.0 | 0.00 | 0.00 | 0.00 | 92 | 1017.0 |
| 20260906110207 | 68 | 103 | 0.0 | 1.7 | 0.00 | 0.00 | 0.00 | 92 | 1017.0 |
| 20260906105206 | 68 | 103 | 0.0 | 1.7 | 0.00 | 0.00 | 0.00 | 93 | 1016.7 |
| 20260906104205 | 68 | 103 | 0.0 | 1.7 | 0.00 | 0.00 | 0.00 | 93 | 1016.6 |
| 20260906103133 | 68 | 103 | 0.0 | 1.7 | 0.00 | 0.00 | 0.00 | 93 | 1016.6 |
| 20260906102101 | 68 | 103 | 0.0 | 0.0 | 0.00 | 0.00 | 0.00 | 92 | 1016.6 |
| 20260906101100 | 68 | 103 | 0.0 | 0.0 | 0.00 | 0.00 | 0.00 | 91 | 1016.6 |
| 20260906100059 | 68 | 103 | 0.0 | 0.0 | 0.00 | 0.00 | 0.00 | 91 | 1016.6 |
| 20260906095058 | 69 | 103 | 0.0 | 0.0 | 0.00 | 0.00 | 0.00 | 90 | 1016.6 |
| 20260906094057 | 69 | 103 | 0.0 | 0.0 | 0.00 | 0.00 | 0.00 | 89 | 1016.3 |
| 20260906093025 | 70 | 103 | 0.0 | 1.7 | 0.00 | 0.00 | 0.00 | 89 | 1016.3 |
| 20260906092024 | 70 | 103 | 0.0 | 0.0 | 0.00 | 0.00 | 0.00 | 88 | 1016.3 |
| 20260906090952 | 70 | 103 | 0.0 | 1.7 | 0.00 | 0.00 | 0.00 | 88 | 1016.0 |
| 20260906085951 | 71 | 103 | 0.0 | 2.6 | 0.00 | 0.00 | 0.00 | 87 | 1016.3 |
| 20260906084951 | 71 | 103 | 0.0 | 2.6 | 0.00 | 0.00 | 0.00 | 87 | 1016.3 |
| 20260906083950 | 71 | 97 | 0.9 | 4.3 | 0.00 | 0.00 | 0.00 | 87 | 1016.0 |
| 20260906082948 | 71 | 109 | 0.0 | 2.6 | 0.00 | 0.00 | 0.00 | 86 | 1016.0 |
| 20260906081948 | 72 | 109 | 0.0 | 1.7 | 0.00 | 0.00 | 0.00 | 86 | 1015.6 |
| 20260906080916 | 72 | 109 | 0.9 | 2.6 | 0.00 | 0.00 | 0.00 | 86 | 1015.6 |
| 20260906075915 | 72 | 109 | 0.9 | 2.6 | 0.00 | 0.00 | 0.00 | 86 | 1015.6 |
| 20260906074914 | 72 | 109 | 0.0 | 2.6 | 0.00 | 0.00 | 0.00 | 86 | 1015.6 |
| 20260906073913 | 73 | 109 | 0.0 | 5.2 | 0.00 | 0.00 | 0.00 | 85 | 1015.6 |
| 20260906072912 | 73 | 109 | 0.0 | 2.6 | 0.00 | 0.00 | 0.00 | 85 | 1015.9 |
| 20260906071911 | 73 | 109 | 0.9 | 4.3 | 0.00 | 0.00 | 0.00 | 85 | 1015.6 |
| 20260906070911 | 73 | 109 | 0.0 | 2.6 | 0.00 | 0.00 | 0.00 | 85 | 1015.9 |
| 20260906065910 | 73 | 108 | 0.0 | 4.3 | 0.00 | 0.00 | 0.00 | 85 | 1015.9 |
| 20260906064909 | 73 | 108 | 0.0 | 1.7 | 0.00 | 0.00 | 0.00 | 86 | 1016.2 |
| 20260906063908 | 73 | 108 | 0.0 | 4.3 | 0.00 | 0.00 | 0.00 | 86 | 1016.3 |
| 20260906062907 | 73 | 108 | 0.9 | 4.3 | 0.00 | 0.00 | 0.00 | 86 | 1016.2 |
| 20260906061907 | 73 | 126 | 0.0 | 1.7 | 0.00 | 0.00 | 0.00 | 86 | 1016.2 |
| 20260906060835 | 73 | 130 | 0.0 | 1.7 | 0.00 | 0.00 | 0.00 | 86 | 1016.2 |
| 20260906055803 | 73 | 130 | 0.0 | 1.7 | 0.00 | 0.00 | 0.00 | 86 | 1016.2 |
| 20260906054802 | 72 | 134 | 0.9 | 5.2 | 0.00 | 0.00 | 0.00 | 87 | 1016.1 |
| 20260906053801 | 72 | 185 | 0.0 | 0.0 | 0.00 | 0.00 | 0.00 | 86 | 1016.1 |
| 20260906052800 | 73 | 185 | 0.0 | 1.7 | 0.00 | 0.00 | 0.00 | 85 | 1016.1 |
| 20260906051759 | 73 | 185 | 0.0 | 1.7 | 0.00 | 0.00 | 0.00 | 84 | 1016.1 |
| 20260906050758 | 74 | 185 | 0.0 | 4.3 | 0.00 | 0.00 | 0.00 | 84 | 1016.1 |
| 20260906045756 | 74 | 188 | 0.9 | 2.6 | 0.00 | 0.00 | 0.00 | 84 | 1016.1 |
| 20260906044756 | 74 | 188 | 0.9 | 2.6 | 0.00 | 0.00 | 0.00 | 84 | 1016.4 |
| 20260906043755 | 74 | 189 | 0.9 | 2.6 | 0.00 | 0.00 | 0.00 | 84 | 1016.4 |
| 20260906042753 | 74 | 189 | 0.0 | 2.6 | 0.00 | 0.00 | 0.00 | 83 | 1016.4 |
| 20260906041752 | 74 | 189 | 0.9 | 2.6 | 0.00 | 0.00 | 0.00 | 83 | 1016.4 |
| 20260906040751 | 74 | 189 | 0.0 | 1.7 | 0.00 | 0.00 | 0.00 | 83 | 1016.4 |
| 20260906035749 | 75 | 189 | 0.9 | 4.3 | 0.00 | 0.00 | 0.00 | 83 | 1016.4 |
| 20260906034749 | 75 | 189 | 0.9 | 1.7 | 0.00 | 0.00 | 0.00 | 83 | 1016.4 |
| 20260906033645 | 75 | 189 | 0.0 | 1.7 | 0.00 | 0.00 | 0.00 | 83 | 1016.4 |
| 20260906032645 | 74 | 189 | 0.0 | 1.7 | 0.00 | 0.00 | 0.00 | 83 | 1016.3 |
| 20260906031613 | 75 | 189 | 0.0 | 0.0 | 0.00 | 0.00 | 0.00 | 82 | 1016.3 |
| 20260906030541 | 75 | 189 | 0.0 | 1.7 | 0.00 | 0.00 | 0.00 | 82 | 1016.3 |
| 20260906025540 | 75 | 189 | 0.0 | 1.7 | 0.00 | 0.00 | 0.00 | 82 | 1016.4 |
| 20260906024540 | 75 | 189 | 0.0 | 0.0 | 0.00 | 0.00 | 0.00 | 81 | 1016.4 |
| 20260906023539 | 75 | 189 | 0.0 | 1.7 | 0.00 | 0.00 | 0.00 | 81 | 1016.4 |
| 20260906022538 | 76 | 189 | 0.0 | 1.7 | 0.00 | 0.00 | 0.00 | 81 | 1016.4 |
| 20260906021537 | 76 | 189 | 0.0 | 1.7 | 0.00 | 0.00 | 0.00 | 81 | 1016.0 |
| 20260906020505 | 76 | 189 | 0.0 | 4.3 | 0.00 | 0.00 | 0.00 | 81 | 1016.0 |
| 20260906015504 | 76 | 189 | 0.0 | 5.2 | 0.00 | 0.00 | 0.00 | 81 | 1015.4 |
| 20260906014503 | 76 | 189 | 0.9 | 2.6 | 0.00 | 0.00 | 0.00 | 80 | 1015.0 |
| 20260906013502 | 77 | 186 | 0.0 | 5.2 | 0.00 | 0.00 | 0.00 | 79 | 1015.0 |
| 20260906012501 | 77 | 186 | 1.7 | 4.3 | 0.00 | 0.00 | 0.00 | 78 | 1014.7 |
| 20260906011500 | 77 | 186 | 0.9 | 4.3 | 0.00 | 0.00 | 0.00 | 78 | 1014.4 |
| 20260906010459 | 78 | 186 | 0.9 | 2.6 | 0.00 | 0.00 | 0.00 | 76 | 1014.4 |
| 20260906005459 | 78 | 186 | 0.0 | 4.3 | 0.00 | 0.00 | 0.00 | 75 | 1014.4 |
| 20260906004458 | 79 | 186 | 1.7 | 2.6 | 0.00 | 0.00 | 0.00 | 74 | 1014.1 |
| 20260906003457 | 80 | 186 | 0.0 | 4.3 | 0.00 | 0.00 | 0.00 | 72 | 1014.1 |
| 20260906002456 | 81 | 186 | 1.7 | 4.3 | 0.00 | 0.00 | 0.00 | 71 | 1014.1 |
| 20260906001455 | 81 | 196 | 2.6 | 7.8 | 0.00 | 0.00 | 0.00 | 69 | 1014.1 |
| 20260906000455 | 82 | 178 | 0.9 | 4.3 | 0.00 | 0.00 | 0.00 | 68 | 1014.2 |
| 20260905235422 | 82 | 178 | 0.0 | 1.7 | 0.00 | 0.00 | 0.00 | 66 | 1014.2 |
| 20260905234421 | 83 | 178 | 0.0 | 5.2 | 0.00 | 0.00 | 0.00 | 65 | 1013.8 |
| 20260905233420 | 84 | 286 | 1.7 | 4.3 | 0.00 | 0.00 | 0.00 | 64 | 1014.2 |
| 20260905232419 | 85 | 119 | 0.9 | 5.2 | 0.00 | 0.00 | 0.00 | 62 | 1013.9 |
| 20260905231419 | 86 | 70 | 0.9 | 7.0 | 0.00 | 0.00 | 0.00 | 62 | 1014.0 |
| 20260905230418 | 87 | 157 | 3.5 | 7.0 | 0.00 | 0.00 | 0.00 | 63 | 1014.0 |
| 20260905225417 | 87 | 180 | 0.0 | 5.2 | 0.00 | 0.00 | 0.00 | 62 | 1013.6 |
| 20260905224416 | 86 | 76 | 1.7 | 5.2 | 0.00 | 0.00 | 0.00 | 59 | 1013.6 |
| 20260905223415 | 86 | 83 | 3.5 | 9.6 | 0.00 | 0.00 | 0.00 | 60 | 1013.3 |
| 20260905222415 | 86 | 86 | 4.3 | 12.2 | 0.00 | 0.00 | 0.00 | 60 | 1013.3 |
| 20260905221414 | 86 | 79 | 3.5 | 10.4 | 0.00 | 0.00 | 0.00 | 62 | 1013.3 |
| 20260905220239 | 86 | 73 | 3.5 | 12.2 | 0.00 | 0.00 | 0.00 | 61 | 1013.3 |
| 20260905215238 | 86 | 80 | 4.3 | 10.4 | 0.00 | 0.00 | 0.00 | 61 | 1013.3 |
| 20260905214237 | 86 | 93 | 2.6 | 13.9 | 0.00 | 0.00 | 0.00 | 64 | 1013.6 |
| 20260905213236 | 86 | 74 | 1.7 | 9.6 | 0.00 | 0.00 | 0.00 | 62 | 1014.0 |
| 20260905212235 | 85 | 52 | 1.7 | 10.4 | 0.00 | 0.00 | 0.00 | 63 | 1013.9 |
| 20260905211235 | 85 | 75 | 3.5 | 10.4 | 0.00 | 0.00 | 0.00 | 64 | 1013.9 |
| 20260905210203 | 84 | 9 | 1.7 | 10.4 | 0.00 | 0.00 | 0.00 | 65 | 1014.3 |
| 20260905205202 | 84 | 62 | 2.6 | 12.2 | 0.00 | 0.00 | 0.00 | 66 | 1014.2 |
| 20260905204201 | 84 | 49 | 1.7 | 12.2 | 0.00 | 0.00 | 0.00 | 68 | 1014.3 |
| 20260905203200 | 83 | 41 | 2.6 | 9.6 | 0.00 | 0.00 | 0.00 | 69 | 1014.2 |
| 20260905202159 | 82 | 58 | 3.5 | 13.9 | 0.00 | 0.00 | 0.00 | 71 | 1014.2 |
| 20260905201158 | 82 | 40 | 2.6 | 12.2 | 0.00 | 0.00 | 0.00 | 72 | 1014.5 |
| 20260905200158 | 81 | 65 | 4.3 | 10.4 | 0.00 | 0.00 | 0.00 | 75 | 1014.5 |
| 20260905195055 | 81 | 358 | 2.6 | 5.2 | 0.00 | 0.00 | 0.00 | 75 | 1014.8 |
| 20260905194023 | 81 | 68 | 2.6 | 9.6 | 0.00 | 0.00 | 0.00 | 76 | 1015.1 |
| 20260905193022 | 80 | 56 | 1.7 | 10.4 | 0.00 | 0.00 | 0.00 | 78 | 1014.8 |
| 20260905192021 | 80 | 83 | 4.3 | 10.4 | 0.00 | 0.00 | 0.00 | 77 | 1015.1 |
| 20260905191020 | 79 | 82 | 3.5 | 9.6 | 0.00 | 0.00 | 0.00 | 78 | 1015.1 |
| 20260905190019 | 79 | 93 | 2.6 | 5.2 | 0.00 | 0.00 | 0.00 | 79 | 1015.4 |
| 20260905185019 | 78 | 134 | 1.7 | 4.3 | 0.00 | 0.00 | 0.00 | 79 | 1015.7 |
| 20260905184018 | 79 | 109 | 0.9 | 5.2 | 0.00 | 0.00 | 0.00 | 78 | 1015.8 |
| 20260905183017 | 78 | 186 | 0.0 | 4.3 | 0.00 | 0.00 | 0.00 | 80 | 1015.8 |
| 20260905182016 | 78 | 191 | 1.7 | 7.0 | 0.00 | 0.00 | 0.00 | 80 | 1015.7 |
| 20260905181015 | 77 | 191 | 2.6 | 5.2 | 0.00 | 0.00 | 0.00 | 81 | 1016.1 |
| 20260905180015 | 77 | 190 | 2.6 | 7.8 | 0.00 | 0.00 | 0.00 | 81 | 1016.0 |
| 20260905175014 | 76 | 94 | 0.9 | 7.8 | 0.00 | 0.00 | 0.00 | 83 | 1016.0 |
| 20260905174013 | 75 | 148 | 0.9 | 2.6 | 0.00 | 0.00 | 0.00 | 85 | 1016.3 |